This demonstration page uses our WeatherBlox Daily Observations layout. Learn more.

Left ArrowRight Arrow

38.88101, -77.10428

Hourly Observations for January 2, 2022

Temp ( °F °C ) Dew Point ( °F °C ) Humidity (%) Winds ( mph kmh ) Pressure ( in mb ) Visibility ( mi km ) Precip ( " mm )
12:52 am 00:52 Cloudy 59 15 55 12.8 87 87 W 7 11 29.60 1002 10 16 0.00 0.00
1:52 am 01:52 Cloudy with Light Rain 58 14.4 55 12.8 90 90 Calm 29.60 1003 10 16 0.00 0.00
2:52 am 02:52 Cloudy with Light Rain 58 14.4 55 12.8 90 90 S 6 9 29.64 1004 10 16 0.02 0.51
3:52 am 03:52 Cloudy with Light Rain 55 12.8 53 11.7 93 93 SSE 7 11 29.61 1003 6 10 0.03 0.76
4:52 am 04:52 Cloudy with Light Rain 56 13.3 54 12.2 93 93 S 10 17 29.61 1003 10 16 0.03 0.76
4:57 am 04:57 Cloudy with Light Rain 55 12.8 53 11.7 93 93 S 14 22 29.60 1002 2 3 0.00 0.00
5:07 am 05:07 Cloudy with Light Rain 55 12.8 53 11.7 93 93 S 13 20 29.60 1002 6 10 0.00 0.00
5:52 am 05:52 Cloudy with Light Rain 59 15 55 12.8 87 87 SSW 8 13 29.54 1001 10 16 0.05 1.27
6:19 am 06:19 Cloudy 60 15.6 56 13.3 86 86 Calm 29.60 1002 10 16 0.00 0.00
6:48 am 06:48 Cloudy 61 16 55 13 83 83 W 3 6 29.61 1003 10 16 0.00 0.00
6:52 am 06:52 Cloudy 60 15.6 57 13.9 90 90 W 6 9 29.62 1003 10 16 0.00 0.00
7:52 am 07:52 Cloudy 60 15.6 56 13.3 86 86 SSW 8 13 29.65 1004 10 16 0.00 0.00
8:52 am 08:52 Cloudy 57 13.9 55 12.8 93 93 S 7 11 29.67 1005 10 16 0.00 0.00
8:59 am 08:59 Mostly Cloudy 58 14.4 55 12.8 90 90 S 7 11 29.69 1005 10 16 0.00 0.00
9:10 am 09:10 Partly Cloudy 58 14.4 56 13.3 93 93 S 8 13 29.69 1005 10 16 0.00 0.00
9:46 am 09:46 Mostly Cloudy 55 13 54 12 94 94 S 7 11 29.71 1006 9 14 0.00 0.00
9:52 am 09:52 Mostly Cloudy 56 13.3 54 12.2 93 93 S 8 13 29.71 1006 10 16 0.00 0.00
10:52 am 10:52 Mostly Cloudy 59 15 56 13.3 90 90 SSW 5 7 29.72 1006 10 16 0.00 0.00
11:21 am 11:21 Cloudy 60 15.6 56 13.3 86 86 S 5 7 29.71 1006 10 16 0.00 0.00
11:52 am 11:52 Mostly Cloudy 60 15.6 56 13.3 86 86 S 6 9 29.70 1006 10 16 0.00 0.00
12:52 pm 12:52 Mostly Cloudy 59 15 56 13.3 90 90 S 14 22 29.69 1006 10 16 0.00 0.00
1:52 pm 13:52 Mostly Cloudy 60 15.6 56 13.3 86 86 S 9 15 29.69 1006 10 16 0.00 0.00
2:52 pm 14:52 Mostly Cloudy 61 16.1 57 13.9 87 87 Calm 29.72 1006 10 16 0.00 0.00
3:41 pm 15:41 Cloudy 60 15.6 56 13.3 86 86 NE 3 6 29.75 1007 10 16 0.00 0.00
3:52 pm 15:52 Cloudy 60 15.6 56 13.3 86 86 NNW 7 11 29.75 1008 10 16 0.00 0.00
4:16 pm 16:16 Cloudy 63 17.2 53 11.7 70 70 WNW 12 19 29.78 1008 10 16 0.00 0.00
4:52 pm 16:52 Cloudy 63 17.2 51 10.6 65 65 WNW 9 15 29.79 1009 10 16 0.00 0.00
5:52 pm 17:52 Mostly Cloudy 61 16.1 51 10.6 70 70 NNW 14 22 29.83 1010 10 16 0.00 0.00
6:52 pm 18:52 Cloudy 58 14.4 45 7.2 62 62 NNW 16 26 29.87 1012 10 16 0.00 0.00
7:52 pm 19:52 Mostly Cloudy 53 11.7 39 3.9 59 59 NNW 20 31 29.90 1013 10 16 0.00 0.00
8:52 pm 20:52 Mostly Cloudy 50 10 36 2.2 59 59 N 18 30 29.92 1013 10 16 0.00 0.00
9:52 pm 21:52 Cloudy 49 9.4 35 1.7 59 59 N 14 22 29.96 1015 10 16 0.00 0.00
10:52 pm 22:52 Cloudy 48 8.9 35 1.7 61 61 N 15 24 30.00 1016 10 16 0.00 0.00
11:52 pm 23:52 Cloudy with Light Rain 46 7.8 34 1.1 63 63 N 16 26 30.04 1017 10 16 0.00 0.00

Powered by AerisWeather